Home > Weather > Oberwart > Past weeks

Flag for Austria Past Weather in Oberwart, Burgenland, Austria — Yesterday and Last 2 Weeks

Now
73 °F

Overcast.


Feels Like: 76 °F
Forecast: 59 / 80 °F
Wind: 3 mph from Northwest

Location: Eisenstadt

Current Time: Jul 28, 2016 at 12:39:50 PM

Latest Report: Jul 28, 2016 at 11:00 AM


Visibility: 13 mi

Pressure: 30.00 "Hg

Humidity: 66%

Dew Point: 61 °F

Location of OberwartLocation

Past Weather in Oberwart — Graph

°F

Oberwart Temperature Yesterday

Maximum temperature yesterday: 82 °F (at 1:00 PM)
Minimum temperature yesterday: 70 °F (at 6:00 AM)
Average temperature yesterday: 75 °F

High & Low Weather Summary for the Past Weeks

 TemperatureHumidityPressure
High86 °F (Jul 21, 3:00 PM)95% (Jul 23, 2:00 AM)30.19 "Hg (Jul 23, 2:00 AM)
Low56 °F (Jul 14, 7:00 AM)40% (Jul 19, 5:00 PM)29.73 "Hg (Jul 14, 7:00 AM)
Average71 °F68%30.00 "Hg
* Reported Jul 13 11:00 AM — Jul 28 11:00 AM, Oberwart, Weather by CustomWeather, © 2016

Note: Actual official high and low records may vary slightly from our data, if they occured in-between our weather recording intervals... More about our weather records

Advertising

Oberwart Weather History for the Previous 24 Hours

Scroll right to see more
 ConditionsComfort  
Time TempWeatherWind HumidityBarometerVisibility
11:00 AM
Thu, Jul 28
73 °FOvercast.3 mph66%30.00 "Hg12 mi
10:00 AM73 °FMild.5 mph67%29.99 "HgN/A
9:00 AM71 °FMild.5 mph71%29.99 "HgN/A
8:00 AM69 °FOvercast.5 mph75%29.99 "Hg12 mi
7:00 AM68 °FLight rain. Overcast.5 mph78%29.99 "Hg12 mi
6:00 AM67 °FOvercast.6 mph80%29.98 "Hg16 mi
5:00 AM68 °FMild.7 mph82%29.97 "HgN/A
4:00 AM68 °FOvercast.7 mph85%29.96 "Hg6 mi
3:00 AM68 °FMild.7 mph88%29.96 "HgN/A
2:00 AM71 °FOvercast.7 mph77%29.96 "Hg9 mi
1:00 AM72 °FMild.5 mph79%29.95 "HgN/A
12:00 AM74 °FMild.5 mph75%29.93 "HgN/A
11:00 PM
Wed, Jul 27
73 °FPassing clouds.1 mph74%29.93 "Hg9 mi
10:00 PM73 °FMild.3 mph73%29.93 "HgN/A
9:00 PM73 °FMild.3 mph77%29.93 "HgN/A
8:00 PM75 °FPartly sunny.1 mph76%29.91 "Hg9 mi
7:00 PM77 °FScattered clouds.1 mph73%29.91 "Hg9 mi
6:00 PM79 °FWarm.3 mph65%29.89 "HgN/A
5:00 PM77 °FOvercast.3 mph66%29.91 "Hg9 mi
4:00 PM79 °FWarm.2 mph65%29.92 "HgN/A
3:00 PM80 °FWarm.2 mph60%29.94 "HgN/A
2:00 PM80 °FOvercast.1 mph59%29.94 "Hg9 mi
1:00 PM82 °FWarm.3 mph57%29.95 "HgN/A
12:00 PM80 °FWarm.2 mph58%29.98 "HgN/A
Weather by CustomWeather, © 2016

See weather overviewHow to use our weather pages